Simultaneous Nadir Overpasses (SNOs) Predictions

Prediction of SNOs between GOES-15 and TERRA Satellite Orbit:

Table of predicted SNOs for the next 14.0 days since TLE Epoch: 5/27/2023
Index Date Time (GOES-15) GOES-15 Lat,Lon TERRA Lat,Lon Distance(km) Time Diff (sec)
1 05/27/2023 08:04:57 0.26,-153.27 0.95,-150.10 360.53 80
2 05/27/2023 20:27:49 -0.24,-153.49 0.06,-155.01 172.32 80
3 05/29/2023 20:08:54 -0.26,-154.35 -0.93,-151.11 368.45 80
4 05/30/2023 08:31:56 0.24,-154.58 -0.07,-156.06 169.08 80
5 06/01/2023 08:13:01 0.25,-155.43 0.93,-152.16 370.67 80
6 06/01/2023 20:35:53 -0.23,-155.65 0.06,-157.08 162.64 80
7 06/03/2023 20:16:58 -0.24,-156.48 -0.96,-153.18 375.85 80
8 06/04/2023 08:39:58 0.22,-156.70 -0.09,-158.12 162.17 80
9 06/06/2023 08:21:03 0.24,-157.53 0.94,-154.23 374.73 80
10 06/06/2023 20:43:55 -0.22,-157.74 0.04,-159.14 159.36 80
11 06/08/2023 20:24:59 -0.25,-158.55 -0.95,-155.24 376.91 80
12 06/09/2023 08:48:00 0.22,-158.77 -0.09,-160.18 161.23 80
